Location: Oshawa
(43.9000°N, 78.8670°W)
Time: 11:21:05
(UTC-05:00)

Altair - Visible Passes

Search period start: 29 January 2015 00:00
Search period end: 08 February 2015 00:00
Orbit: 1501 x 1683 km, 47.2° (Epoch: 27 January)

Date Brightness Start Highest point End Pass type
(mag) Time Alt. Az. Time Alt. Az. Time Alt. Az.
29 Jan 9.5 01:47:49 17° ENE 01:47:49 17° ENE 01:49:30 10° ENE visible
29 Jan 7.7 03:45:49 69° NE 03:45:49 69° NE 03:54:32 10° ENE visible
29 Jan 7.6 05:43:50 28° WNW 05:50:05 81° NNE 05:59:53 10° ESE visible
30 Jan 9.7 01:23:57 11° ENE 01:23:57 11° ENE 01:24:18 10° ENE visible
30 Jan 8.0 03:21:59 55° ENE 03:21:59 55° ENE 03:29:21 10° ENE visible
30 Jan 7.6 05:19:59 36° WNW 05:24:51 80° NNE 05:34:42 10° E visible
31 Jan 8.4 02:58:08 43° ENE 02:58:08 43° ENE 03:04:09 10° ENE visible
31 Jan 7.6 04:56:09 47° WNW 04:59:38 78° N 05:09:31 10° E visible
31 Jan 7.8 06:54:39 10° WNW 07:04:30 63° SW 07:13:56 10° SE visible
01 Feb 8.8 02:34:18 33° ENE 02:34:18 33° ENE 02:38:57 10° ENE visible
01 Feb 7.6 04:32:19 60° NW 04:34:24 77° N 04:44:19 10° E visible
01 Feb 7.7 06:30:19 13° WNW 06:39:22 67° SSW 06:48:54 10° SE visible
02 Feb 9.1 02:10:28 25° ENE 02:10:28 25° ENE 02:13:45 10° ENE visible
02 Feb 7.5 04:08:30 73° NNW 04:09:10 76° N 04:19:07 10° E visible
02 Feb 7.7 06:06:30 19° WNW 06:14:13 70° SSW 06:23:50 10° SE visible
03 Feb 9.4 01:46:40 18° ENE 01:46:40 18° ENE 01:48:34 10° ENE visible
03 Feb 7.6 03:44:41 72° NE 03:44:41 72° NE 03:53:54 10° E visible
03 Feb 7.6 05:42:42 26° WNW 05:49:04 74° SSW 05:58:46 10° SE visible
04 Feb 9.7 01:22:53 12° ENE 01:22:53 12° ENE 01:23:22 10° ENE visible
04 Feb 7.9 03:20:55 58° ENE 03:20:55 58° ENE 03:28:43 10° E visible
04 Feb 7.5 05:18:56 35° WNW 05:23:54 77° SSW 05:33:41 10° SE visible
05 Feb 8.3 02:57:10 45° ENE 02:57:10 45° ENE 03:03:29 10° E visible
05 Feb 7.5 04:55:12 47° WNW 04:58:44 81° SSW 05:08:35 10° ESE visible
05 Feb 8.4 06:54:03 10° WNW 07:02:43 34° SW 07:10:58 10° SSE visible
06 Feb 8.7 02:33:28 33° ENE 02:33:28 33° ENE 02:38:16 10° E visible
06 Feb 7.5 04:31:30 63° WNW 04:33:33 84° SSW 04:43:27 10° ESE visible
06 Feb 8.2 06:29:31 13° WNW 06:37:39 37° SW 06:46:09 10° SSE visible
07 Feb 9.1 02:09:49 24° E 02:09:49 24° E 02:13:02 10° E visible
07 Feb 7.4 04:07:51 82° W 04:08:22 87° SSW 04:18:18 10° ESE visible
07 Feb 8.1 06:05:53 19° W 06:12:34 40° SW 06:21:18 10° SSE visible
